TimeCET,TemperatureF,Dew PointF,Humidity,Sea Level PressureIn,VisibilityMPH,Wind Direction,Wind SpeedMPH,Gust SpeedMPH,PrecipitationIn,Events,Conditions,WindDirDegrees,DateUTC
12:00 AM,30.2,23.0,75,30.09,-9999.0,SW,9.2,-,N/A,,Clear,220,2013-03-02 23:00:00
12:30 AM,28.4,23.0,80,30.09,-9999.0,SW,5.8,-,N/A,,Clear,230,2013-03-02 23:30:00
1:00 AM,26,21,72,30.18,19,SW,11.2,,,,,220,2013-03-03 00:00:00
1:00 AM,26.6,21.2,80,30.09,-9999.0,SSW,9.2,-,N/A,,Clear,210,2013-03-03 00:00:00
1:30 AM,26.6,21.2,80,30.09,-9999.0,SW,8.1,-,N/A,,Clear,220,2013-03-03 00:30:00
2:00 AM,28.4,23.0,80,30.06,-9999.0,SW,6.9,-,N/A,,Clear,220,2013-03-03 01:00:00
2:30 AM,24.8,21.2,86,30.06,-9999.0,SSW,10.4,-,N/A,,Clear,210,2013-03-03 01:30:00
3:00 AM,24.8,21.2,86,30.06,-9999.0,SSW,10.4,-,N/A,,Clear,210,2013-03-03 02:00:00
3:30 AM,24.8,21.2,86,30.06,-9999.0,SSW,11.5,-,N/A,,Clear,210,2013-03-03 02:30:00
4:00 AM,26.6,21.2,80,30.06,-9999.0,WSW,12.7,-,N/A,,Clear,240,2013-03-03 03:00:00
4:30 AM,26.6,21.2,80,30.06,-9999.0,WSW,12.7,-,N/A,,Clear,240,2013-03-03 03:30:00
5:00 AM,26.6,21.2,80,30.06,-9999.0,WSW,12.7,-,N/A,,Clear,240,2013-03-03 04:00:00
5:30 AM,24.8,21.2,86,30.06,-9999.0,WSW,11.5,-,N/A,,Clear,250,2013-03-03 04:30:00
6:00 AM,24.8,21.2,86,30.06,-9999.0,SW,9.2,-,N/A,,Clear,220,2013-03-03 05:00:00
6:30 AM,24.8,21.2,86,30.06,-9999.0,WSW,9.2,-,N/A,,Clear,250,2013-03-03 05:30:00
7:00 AM,26,21,76,30.16,9,West,11.2,,,,Scattered Clouds,260,2013-03-03 06:00:00
7:00 AM,26.6,23.0,86,30.06,-9999.0,WSW,8.1,-,N/A,,Clear,250,2013-03-03 06:00:00
7:30 AM,28.4,23.0,80,30.06,-9999.0,SW,11.5,-,N/A,,Clear,220,2013-03-03 06:30:00
8:00 AM,28.4,23.0,80,30.06,-9999.0,WSW,11.5,-,N/A,,Clear,240,2013-03-03 07:00:00
8:30 AM,30.2,24.8,80,30.09,6.2,WSW,11.5,-,N/A,,Mostly Cloudy,250,2013-03-03 07:30:00
9:00 AM,30.2,24.8,80,30.09,6.2,WSW,12.7,-,N/A,,Mostly Cloudy,240,2013-03-03 08:00:00
9:30 AM,32.0,26.6,80,30.09,6.2,WSW,12.7,-,N/A,,Mostly Cloudy,240,2013-03-03 08:30:00
10:00 AM,33.8,26.6,75,30.09,6.2,SW,10.4,-,N/A,,Mostly Cloudy,230,2013-03-03 09:00:00
10:30 AM,33.8,26.6,75,30.09,6.2,WSW,6.9,-,N/A,,Mostly Cloudy,250,2013-03-03 09:30:00
11:00 AM,35.6,28.4,75,30.09,6.2,West,10.4,-,N/A,,Mostly Cloudy,280,2013-03-03 10:00:00
11:30 AM,35.6,28.4,75,30.12,6.2,West,9.2,-,N/A,,Mostly Cloudy,280,2013-03-03 10:30:00
12:00 PM,35.6,28.4,75,30.12,6.2,WNW,9.2,-,N/A,,Mostly Cloudy,290,2013-03-03 11:00:00
12:30 PM,35.6,28.4,75,30.12,6.2,NNW,10.4,-,N/A,,Mostly Cloudy,330,2013-03-03 11:30:00
1:00 PM,35,29,71,30.19,16,NNW,11.2,,,,Mostly Cloudy,330,2013-03-03 12:00:00
1:00 PM,35.6,28.4,75,30.12,6.2,NW,10.4,-,N/A,,Mostly Cloudy,320,2013-03-03 12:00:00
1:30 PM,35.6,28.4,75,30.12,6.2,NW,9.2,-,N/A,,Mostly Cloudy,320,2013-03-03 12:30:00
2:00 PM,35.6,26.6,70,30.12,6.2,WNW,9.2,-,N/A,,Mostly Cloudy,290,2013-03-03 13:00:00
2:30 PM,35.6,28.4,75,30.12,6.2,WNW,10.4,-,N/A,,Mostly Cloudy,290,2013-03-03 13:30:00
3:00 PM,35.6,26.6,70,30.12,6.2,West,6.9,-,N/A,,Mostly Cloudy,280,2013-03-03 14:00:00
3:30 PM,37.4,26.6,65,30.09,6.2,WNW,9.2,-,N/A,,Mostly Cloudy,290,2013-03-03 14:30:00
4:00 PM,35.6,26.6,70,30.09,6.2,NW,9.2,-,N/A,,Mostly Cloudy,310,2013-03-03 15:00:00
4:30 PM,35.6,26.6,70,30.12,6.2,NW,8.1,-,N/A,,Mostly Cloudy,310,2013-03-03 15:30:00
5:00 PM,35.6,26.6,70,30.12,6.2,NW,8.1,-,N/A,,Mostly Cloudy,310,2013-03-03 16:00:00
5:30 PM,35.6,26.6,70,30.12,6.2,NNW,6.9,-,N/A,,Mostly Cloudy,330,2013-03-03 16:30:00
6:00 PM,33.8,26.6,75,30.12,6.2,NW,5.8,-,N/A,,Mostly Cloudy,310,2013-03-03 17:00:00
6:30 PM,33.8,26.6,75,30.12,6.2,WNW,4.6,-,N/A,,Scattered Clouds,300,2013-03-03 17:30:00
7:00 PM,32,26,70,30.21,12,NW,6.7,,,,Scattered Clouds,310,2013-03-03 18:00:00
7:00 PM,32.0,26.6,80,30.12,6.2,WNW,5.8,-,N/A,,Partly Cloudy,290,2013-03-03 18:00:00
7:30 PM,32.0,26.6,80,30.12,6.2,NW,8.1,-,N/A,,Partly Cloudy,310,2013-03-03 18:30:00
8:00 PM,30.2,24.8,80,30.15,-9999.0,WNW,5.8,-,N/A,,Clear,300,2013-03-03 19:00:00
8:30 PM,30.2,24.8,80,30.15,-9999.0,West,5.8,-,N/A,,Clear,280,2013-03-03 19:30:00
9:00 PM,30.2,24.8,80,30.15,-9999.0,WNW,5.8,-,N/A,,Clear,290,2013-03-03 20:00:00
9:30 PM,26.6,21.2,80,30.18,-9999.0,West,4.6,-,N/A,,Clear,270,2013-03-03 20:30:00
10:00 PM,26.6,23.0,86,30.18,-9999.0,WSW,3.5,-,N/A,,Clear,240,2013-03-03 21:00:00
10:30 PM,26.6,23.0,86,30.18,6.2,West,3.5,-,N/A,,Mostly Cloudy,260,2013-03-03 21:30:00
11:00 PM,28.4,24.8,86,30.18,6.2,SW,4.6,-,N/A,,Overcast,230,2013-03-03 22:00:00
11:30 PM,26.6,23.0,86,30.18,6.2,SW,6.9,-,N/A,,Mostly Cloudy,220,2013-03-03 22:30:00